Retour au catalogue

STARLINK-2422

ActifCommunicationsVLEO
NORAD 47832·PAYLOAD·🇺🇸 United States

Lancé Mar 11, 2021 depuis Cape Canaveral Space Force Station

Loading…

Prochains Passages (prochaines 24 heures)

TLE

FraisSource: CelesTrak SupGP

Époque: Sep 15, 2026, 01:05 UTC

1 47832C 21018AX  26258.04562500  .00021504  00000+0  69151-3 0  2585
2 47832  53.1576  84.4928 0001169  81.1919 101.0551 15.31691011    16

Suivez STARLINK-2422 en temps réel avec AllMySat

Download on the App Store